Terug naar catalogus

METEOR 2-8 DEB

ActiefPO
NORAD 36350·DEBRIS·🇷🇺 Russia

Gelanceerd Mar 25, 1982 vanaf Plesetsk Cosmodrome

Loading…

Volgende Passages (komende 24 uur)

TLE

VersSource: Space-Track

Epoch: Sep 11, 2026, 06:43 UTC

1 36350U 82025AL  26254.28011241  .00001945  00000-0  64721-3 0  9994
2 36350  82.5134  86.2933 0024618  76.2407 284.1520 14.37110215684634

Volg METEOR 2-8 DEB in realtime met AllMySat

Download on the App Store